Aérodrome :
LOGIN :

S'inscrire | Disclaimer

   EN    FR    IT 

 










Légende :    VFR   VFR Marginal   IFR   IFR Intensif   IFR Très Intensif
Visi : 
Plafond : 
>= 8 km
>= 3000ft
5 à 8 km
1000 à 3000 ft
1500m à 5 km
500 à 1000 ft
800 à 1500m
200 à 500 ft
< 800m
< 200 ft
Symboles :   Orages  Brouillard  Fortes neiges  Fortes précipitations  Vent > 20 kt
SIGMETs :   Divers  Orages  Givrage  Turbulence  Onde Orograph.  Cendres Volcan.







- Altitude de l'aérodrome : 7 ft
- Code IATA : XHE
- Voir les cartes d'approche


LFTH - Hyeres

DERNIER METAR :
  • 170100Z AUTO 35007KT 9999 OVC041 17/15 Q1017 NOSIG

METARs EXPIRÉS :
  • 170030Z AUTO 35006KT 9999 OVC040 17/15 Q1017 NOSIG
  • 170000Z AUTO 36006KT 9999 OVC040 17/15 Q1017 NOSIG
  • 162330Z AUTO 36008KT 9999 OVC044 17/15 Q1017 NOSIG
  • 162300Z AUTO 36007KT 9999 OVC049 17/15 Q1017 NOSIG
  • 162230Z AUTO 34006KT 9999 -RADZ FEW040/// OVC056/// ///TCU 17/15 Q1017 TEMPO BKN030

TAF TAF LFTH
Valide du 16 à 21h jusqu'au 17 à 21h UTC


162000Z 1621/1721 05004KT 9999 BKN040
PROB30
TEMPO 1621/1702 -SHRA BKN030
Pas de NOTAMs connus pour ce terrain.



MET'MAP, la Météo Aéronautique d'un coup d'oeil ! - Copyright ORBIFLY Décembre 2007 - Disclaimer

ORBIFLY MET'MAP TEAM :

Programmation & Développement : Alexandra Zaïnal
Conception & Développement : Baudouin d'Aumeries
Co-Programmation & Développement : Marc-Olivier Méhu
Soutien technique & logistique : Manuel Goepfert

Contact : metmap@orbifly.com




SOURCES & CREDITS :

   NOAA